Flag for Canada Weather past 2 weeks in Chatham-Kent, Ontario, Canada

Now
60 °F

Cool.


Feels Like: 58 °F
Forecast: 58 / 71 °F
Wind: 9 mph from East

Location: Erieau

Current Time: May 29, 2015 at 12:50:13 AM

Latest Report: May 29, 2015 at 12:00 AM


Visibility: N/A

Pressure: 30.22 "Hg

Humidity: 75%

Dew point: 52 °F

Location of Chatham-KentLocation

Historic Weather in Chatham-Kent — Graph

°F

Chatham-Kent temperature yesterday

Maximum temperature yesterday: 69 °F (at 7:00 PM)
Minimum temperature yesterday: 58 °F (at 11:00 AM)
Average temperature yesterday: 62 °F

Past Weeks' High & Low Weather Summary

 TemperatureHumidityPressure
High69 °F (May 28, 7:00 PM)100% (May 16, 11:00 PM)30.50 "Hg (May 16, 11:00 PM)
Low40 °F (May 14, 4:00 AM)30% (May 22, 3:00 PM)29.93 "Hg (May 26, 7:00 PM)
Average55 °F79%30.12 "Hg
* Reported May 13 11:00 PM — May 28 11:00 PM, Chatham-Kent, Weather by CustomWeather, © 2015

Note: Actual official high and low records may vary slightly from our data, if they occured in-between our weather recording intervals... More about our weather records

Advertising

Chatham-Kent weather history for previous 24 hours

 ConditionsComfort  
Time TempWeatherWind HumidityBarometerVisibility
11:00 PM
Thu, May 28
59 °FCool.6 mph80%30.23 "HgN/A
10:00 PM64 °FMild.6 mph64%30.22 "HgN/A
9:00 PM65 °FMild.7 mph63%30.21 "HgN/A
8:00 PM67 °FMild.8 mph57%30.22 "HgN/A
7:00 PM69 °FMild.7 mph55%30.22 "HgN/A
6:00 PM69 °FMild.7 mph58%30.23 "HgN/A
5:00 PM66 °FMild.6 mph61%30.23 "HgN/A
4:00 PM63 °FMild.3 mph77%30.25 "HgN/A
3:00 PM62 °FCool.3 mph79%30.26 "HgN/A
2:00 PM62 °FCool.2 mph81%30.29 "HgN/A
1:00 PM59 °FCool.3 mph82%30.29 "HgN/A
12:00 PM60 °FCool.2 mph79%30.28 "HgN/A
11:00 AM58 °FCool.6 mph87%30.26 "HgN/A
10:00 AM60 °FCool.1 mph84%30.25 "HgN/A
9:00 AM64 °FMild.3 mph70%30.24 "HgN/A
8:00 AM63 °FMild.5 mph71%30.22 "HgN/A
7:00 AM61 °FCool.No wind77%30.21 "HgN/A
6:00 AM59 °FCool.1 mph81%30.19 "HgN/A
5:00 AM61 °FCool.2 mph77%30.17 "HgN/A
4:00 AM62 °FCool.3 mph77%30.14 "HgN/A
3:00 AM63 °FMild.1 mph77%30.13 "HgN/A
2:00 AM61 °FCool.3 mph96%30.10 "HgN/A
1:00 AM58 °FCool.5 mph96%30.07 "HgN/A
12:00 AM59 °FCool.6 mph97%30.06 "HgN/A
Weather by CustomWeather, © 2015

See weather overviewHow to use our weather pages